#timestamp,LO_Frequency,Hit,StdDev 
1592056815.4,286046998.0,P
1592056835.3,286046993.3,P
1592056855.1,286046993.4,N
1592056875.9,286046994.3,N
1592056895.7,286046992.4,Y
1592056915.6,286046996.7,P
1592056935.4,286046999.2,N
1592056955.2,286046999.1,N
1592056975.1,286046998.9,N
1592056976.0,286046998.9,N
1592056995.8,286046998.3,N
1592057015.6,286047000.8,N
1592057035.5,286047000.7,N
1592057055.3,286047000.3,N
1592057075.2,286047000.4,N
1592057095.9,286047000.9,N
1592057115.7,286046998.5,N
1592057135.6,286046998.1,N
1592057155.4,286046998.5,N
1592057175.2,286046998.5,N
1592057195.1,286046998.6,N
1592057196.0,286046998.6,N
1592057215.8,286047001.1,N
1592057235.7,286046998.2,N
1592057255.5,286046999.0,N
1592057275.3,286046998.2,N
1592057295.2,286046998.5,N
1592057315.0,286046999.5,N
1592057315.9,286046999.5,N
1592057335.8,286046997.9,N
1592057355.6,286046997.7,N
1592057375.4,286046996.8,N
1592057395.3,286046996.9,N
1592057415.1,286046997.0,N
1592057435.8,286046998.5,N
1592057455.7,286046998.6,N
1592057475.5,286046998.7,N
1592057495.4,286046999.0,N
1592057515.2,286046997.7,N
1592057535.0,286046997.1,N
1592057535.9,286046997.1,N
1592057555.8,286046997.4,N
1592057575.6,286046996.1,Y
1592057595.5,286046995.1,P
1592057615.3,286046993.6,P
1592057635.1,286046997.1,N
1592057655.9,286046996.9,N
1592057675.7,286046997.3,N
1592057695.5,286046995.3,N
1592057715.4,286046996.2,N
1592057735.2,286046993.5,Y
1592057755.1,286046998.7,P
1592057756.0,286046998.7,N
1592057775.8,286046999.4,N
1592057795.6,286046998.1,N
1592057815.5,286046998.7,N
1592057835.3,286047001.2,N
1592057855.2,286047000.7,N
1592057875.9,286046999.9,N
1592057895.7,286047002.8,N
1592057915.6,286047002.2,N
1592057935.4,286047002.7,N
1592057955.2,286047002.3,N
1592057975.1,286047001.7,N
1592057976.0,286047001.7,N
1592057995.8,286047004.1,N
1592058015.7,286047002.9,N
1592058035.5,286047005.9,N
1592058055.3,286047002.9,N
1592058075.2,286047005.7,N
1592058095.0,286047003.7,N
1592058095.9,286047003.7,N
1592058115.8,286047002.5,N
1592058135.6,286047003.9,N
1592058155.4,286047002.0,N
1592058175.3,286047000.8,N
1592058195.1,286047000.4,N
1592058215.8,286047001.0,N
1592058235.7,286047000.8,N
1592058255.5,286046999.6,N
1592058275.4,286046998.6,N
1592058295.2,286047000.7,N
1592058315.0,286047002.1,N
1592058315.9,286047002.1,N
1592058335.8,286047001.1,N
1592058355.6,286047001.5,N
1592058375.5,286047001.6,N
1592058395.3,286047002.3,N
1592058415.1,286046999.7,N
1592058435.9,286047000.4,N
1592058455.7,286047000.9,N
1592058475.5,286046998.5,N
1592058495.4,286047000.5,N
1592058515.2,286047002.8,N
1592058535.1,286047000.4,N
1592058536.0,286047000.4,N
1592058555.8,286047000.6,N
1592058575.6,286046998.1,N
1592058595.5,286047000.1,N
1592058615.3,286047002.7,N
1592058635.1,286047000.8,N
1592058655.9,286046999.9,N
1592058675.7,286047000.6,N
1592058695.6,286047003.5,N
1592058715.4,286047002.7,N
1592058735.2,286047002.6,N
1592058755.1,286046999.6,N
1592058756.0,286046999.6,N
1592058775.8,286047003.9,N
1592058795.7,286047004.3,N
1592058815.5,286047002.6,N
1592058835.3,286047003.9,N
1592058855.2,286047005.9,Y
1592058875.0,286047000.8,P
1592058875.9,286047000.8,N
1592058895.7,286047001.4,P
1592058915.6,286047001.7,Y
1592058935.4,286047001.1,P
1592058955.3,286046998.8,P
1592058975.1,286047000.6,N
1592058995.8,286046999.8,N
1592059015.7,286047000.7,N
1592059035.5,286046998.5,N
1592059055.4,286046999.9,N
1592059075.2,286047000.5,N
1592059095.0,286047000.7,N
1592059095.9,286047000.7,N
1592059115.8,286046998.6,N
1592059135.6,286047001.1,N
1592059155.4,286046998.2,N
1592059175.3,286047001.0,N
1592059195.1,286046998.1,N
1592059215.9,286047000.4,N
1592059235.7,286047000.1,N
1592059255.5,286047002.0,N
1592059275.4,286047002.6,N
1592059295.2,286046999.8,N
1592059315.1,286047000.6,N
1592059316.0,286047000.6,N
1592059335.8,286047001.0,N
1592059355.6,286046998.6,N
1592059375.5,286047001.1,N
1592059395.3,286046998.6,N
1592059415.1,286046998.6,N
1592059435.9,286046999.6,N
1592059455.7,286046998.7,N
1592059475.6,286047000.1,N
1592059495.4,286047002.4,N
1592059515.2,286047001.4,N
1592059535.1,286047004.1,Y
1592059536.0,286047004.1,P
1592059555.8,286047003.0,N
1592059575.7,286047006.0,P
1592059595.5,286047003.7,N
1592059615.3,286047002.2,N
1592059635.2,286047002.1,N
1592059655.0,286047001.7,N
1592059655.9,286047001.7,N
1592059675.7,286047004.4,N
1592059695.6,286047006.0,Y
1592059715.4,286046999.7,P
1592059735.3,286047000.2,N
1592059755.1,286047000.3,N
1592059775.8,286047001.6,N
1592059795.7,286047003.7,Y
1592059815.5,286047002.1,P
1592059835.4,286047001.3,N
1592059855.2,286047001.8,P
1592059875.0,286047003.1,Y
1592059875.9,286047003.1,P
1592059895.8,286047001.4,N
1592059915.6,286047003.0,P
1592059935.5,286047006.0,Y
1592059955.3,286047002.5,P
1592059975.1,286047001.6,P
1592059995.9,286047002.4,P
1592060015.7,286047001.7,Y
1592060035.6,286047000.2,P
1592060055.4,286047000.3,N
1592060075.2,286046999.8,N
1592060095.1,286047000.2,N
1592060096.0,286047000.2,N
1592060115.8,286046998.8,N
1592060135.7,286047000.6,N
1592060155.5,286046999.2,N
1592060175.3,286047000.8,N
1592060195.2,286046998.3,N
1592060215.9,286046998.5,N
1592060235.7,286047001.1,N
1592060255.6,286047001.0,N
1592060275.4,286046996.5,Y
1592060295.3,286046998.9,P
1592060315.1,286046999.2,N
1592060316.0,286046999.2,N
1592060335.8,286046999.3,N
1592060355.7,286046996.5,Y
1592060375.5,286046998.7,P
1592060395.4,286046997.0,P
